| time (UTC) | temp F | wind direction | speed MPH | gust MPH | rain 1hr in | rain 24hr in | rain mn in | humidity % | barometer mb |
| 20260505041704 | 73 | 198 | 7.0 | 9.0 | 0.00 | 0.00 | 0.00 | 57 | 1000.0 |
| 20260505040203 | 73 | 215 | 7.0 | 10.0 | 0.00 | 0.00 | 0.00 | 56 | 1000.0 |
| 20260505035703 | 73 | 210 | 7.0 | 10.0 | 0.00 | 0.00 | 0.00 | 56 | 1000.0 |
| 20260505033704 | 74 | 221 | 5.0 | 8.0 | 0.00 | 0.00 | 0.00 | 55 | 1000.0 |
| 20260505033203 | 74 | 232 | 5.0 | 9.0 | 0.00 | 0.00 | 0.00 | 54 | 1000.0 |
| 20260505032703 | 74 | 223 | 6.0 | 10.0 | 0.00 | 0.00 | 0.00 | 54 | 1000.0 |
| 20260505032204 | 74 | 220 | 7.0 | 10.0 | 0.00 | 0.00 | 0.00 | 54 | 1000.0 |
| 20260505031704 | 74 | 220 | 7.0 | 9.0 | 0.00 | 0.00 | 0.00 | 54 | 1000.0 |
| 20260505031203 | 75 | 213 | 8.0 | 10.0 | 0.00 | 0.00 | 0.00 | 54 | 1000.0 |
| 20260505030703 | 75 | 224 | 7.0 | 10.0 | 0.00 | 0.00 | 0.00 | 53 | 1000.0 |
| 20260505030203 | 75 | 217 | 6.0 | 10.0 | 0.00 | 0.00 | 0.00 | 52 | 1000.0 |
| 20260505025704 | 75 | 235 | 6.0 | 8.0 | 0.00 | 0.00 | 0.00 | 52 | 1000.0 |
| 20260505025204 | 76 | 227 | 6.0 | 7.0 | 0.00 | 0.00 | 0.00 | 52 | 1000.0 |
| 20260505024703 | 76 | 221 | 7.0 | 14.0 | 0.00 | 0.00 | 0.00 | 52 | 1000.0 |
| 20260505024203 | 76 | 229 | 6.0 | 12.0 | 0.00 | 0.00 | 0.00 | 51 | 1000.0 |
| 20260505023703 | 76 | 223 | 6.0 | 12.0 | 0.00 | 0.00 | 0.00 | 51 | 1000.0 |
| 20260505022704 | 76 | 225 | 8.0 | 16.0 | 0.00 | 0.00 | 0.00 | 50 | 1000.0 |
| 20260505022203 | 76 | 213 | 9.0 | 14.0 | 0.00 | 0.00 | 0.00 | 50 | 1000.0 |
| 20260505021704 | 76 | 212 | 10.0 | 17.0 | 0.00 | 0.00 | 0.00 | 50 | 1000.0 |
| 20260505021203 | 76 | 228 | 9.0 | 15.0 | 0.00 | 0.00 | 0.00 | 50 | 1000.0 |
| 20260505020704 | 76 | 214 | 9.0 | 15.0 | 0.00 | 0.00 | 0.00 | 51 | 1000.0 |
| 20260505020204 | 77 | 211 | 10.0 | 14.0 | 0.00 | 0.00 | 0.00 | 51 | 1000.0 |
| 20260505015704 | 77 | 216 | 7.0 | 10.0 | 0.00 | 0.00 | 0.00 | 51 | 1000.0 |
| 20260505015203 | 77 | 214 | 7.0 | 10.0 | 0.00 | 0.00 | 0.00 | 51 | 1000.0 |
| 20260505014704 | 77 | 226 | 6.0 | 9.0 | 0.00 | 0.00 | 0.00 | 51 | 1000.0 |
| 20260505013704 | 77 | 214 | 6.0 | 8.0 | 0.00 | 0.00 | 0.00 | 51 | 1000.0 |
| 20260505013203 | 77 | 217 | 5.0 | 8.0 | 0.00 | 0.00 | 0.00 | 50 | 1000.0 |
| 20260505012703 | 78 | 226 | 7.0 | 10.0 | 0.00 | 0.00 | 0.00 | 50 | 1000.0 |
| 20260505012203 | 78 | 228 | 5.0 | 9.0 | 0.00 | 0.00 | 0.00 | 50 | 1000.0 |
| 20260505011704 | 78 | 242 | 5.0 | 9.0 | 0.00 | 0.00 | 0.00 | 49 | 1000.0 |
| 20260505011203 | 78 | 235 | 5.0 | 9.0 | 0.00 | 0.00 | 0.00 | 49 | 1000.0 |
| 20260505010704 | 78 | 227 | 7.0 | 12.0 | 0.00 | 0.00 | 0.00 | 49 | 1000.0 |
| 20260505010204 | 78 | 229 | 7.0 | 14.0 | 0.00 | 0.00 | 0.00 | 48 | 1000.0 |
| 20260505005704 | 78 | 223 | 7.0 | 13.0 | 0.00 | 0.00 | 0.00 | 48 | 1000.0 |
| 20260505004704 | 78 | 223 | 8.0 | 14.0 | 0.00 | 0.00 | 0.00 | 48 | 1000.0 |
| 20260505004203 | 78 | 223 | 10.0 | 17.0 | 0.00 | 0.00 | 0.00 | 47 | 1000.0 |
| 20260505003703 | 79 | 214 | 7.0 | 17.0 | 0.00 | 0.00 | 0.00 | 48 | 1000.0 |
| 20260505002704 | 79 | 211 | 12.0 | 17.0 | 0.00 | 0.00 | 0.00 | 47 | 1000.0 |
| 20260505002203 | 79 | 209 | 13.0 | 20.0 | 0.00 | 0.00 | 0.00 | 47 | 1000.0 |
| 20260505001703 | 79 | 206 | 10.0 | 16.0 | 0.00 | 0.00 | 0.00 | 48 | 1000.0 |
| 20260505001204 | 79 | 220 | 9.0 | 13.0 | 0.00 | 0.00 | 0.00 | 47 | 1000.0 |
| 20260505000703 | 79 | 215 | 12.0 | 20.0 | 0.00 | 0.00 | 0.00 | 47 | 1000.0 |
| 20260505000204 | 79 | 216 | 8.0 | 15.0 | 0.00 | 0.00 | 0.00 | 47 | 1000.0 |
| 20260504235704 | 79 | 210 | 12.0 | 22.0 | 0.00 | 0.00 | 0.00 | 47 | 1000.0 |
| 20260504235203 | 79 | 217 | 10.0 | 15.0 | 0.00 | 0.00 | 0.00 | 47 | 1000.0 |
| 20260504234704 | 80 | 207 | 9.0 | 16.0 | 0.00 | 0.00 | 0.00 | 46 | 1000.0 |
| 20260504234204 | 80 | 206 | 11.0 | 20.0 | 0.00 | 0.00 | 0.00 | 46 | 1000.0 |
| 20260504233703 | 80 | 219 | 13.0 | 17.0 | 0.00 | 0.00 | 0.00 | 46 | 1000.0 |
| 20260504233203 | 80 | 207 | 13.0 | 21.0 | 0.00 | 0.00 | 0.00 | 46 | 1000.0 |
| 20260504232704 | 80 | 219 | 12.0 | 18.0 | 0.00 | 0.00 | 0.00 | 45 | 1000.0 |
| 20260504232204 | 80 | 215 | 14.0 | 21.0 | 0.00 | 0.00 | 0.00 | 45 | 1000.0 |
| 20260504231704 | 80 | 216 | 14.0 | 21.0 | 0.00 | 0.00 | 0.00 | 45 | 1000.0 |
| 20260504231204 | 80 | 227 | 13.0 | 20.0 | 0.00 | 0.00 | 0.00 | 45 | 1000.0 |
| 20260504230204 | 81 | 222 | 9.0 | 23.0 | 0.00 | 0.00 | 0.00 | 45 | 1000.0 |
| 20260504225703 | 81 | 214 | 14.0 | 25.0 | 0.00 | 0.00 | 0.00 | 44 | 1000.0 |
| 20260504225203 | 81 | 211 | 14.0 | 32.0 | 0.00 | 0.00 | 0.00 | 43 | 1000.0 |
| 20260504224704 | 82 | 208 | 10.0 | 24.0 | 0.00 | 0.00 | 0.00 | 43 | 1000.0 |
| 20260504224203 | 81 | 217 | 14.0 | 21.0 | 0.00 | 0.00 | 0.00 | 43 | 1000.0 |
| 20260504223704 | 81 | 219 | 12.0 | 20.0 | 0.00 | 0.00 | 0.00 | 43 | 1000.0 |
| 20260504223203 | 81 | 218 | 14.0 | 30.0 | 0.00 | 0.00 | 0.00 | 42 | 1000.0 |
| 20260504222703 | 81 | 216 | 16.0 | 29.0 | 0.00 | 0.00 | 0.00 | 42 | 1000.0 |
| 20260504222203 | 82 | 222 | 13.0 | 23.0 | 0.00 | 0.00 | 0.00 | 43 | 1000.0 |
| 20260504221703 | 82 | 211 | 15.0 | 22.0 | 0.00 | 0.00 | 0.00 | 42 | 1000.0 |
| 20260504221204 | 81 | 205 | 17.0 | 33.0 | 0.00 | 0.00 | 0.00 | 42 | 1000.0 |
| 20260504220704 | 81 | 214 | 19.0 | 26.0 | 0.00 | 0.00 | 0.00 | 42 | 1000.0 |
| 20260504220204 | 81 | 206 | 13.0 | 24.0 | 0.00 | 0.00 | 0.00 | 42 | 1000.0 |
| 20260504215703 | 81 | 225 | 14.0 | 24.0 | 0.00 | 0.00 | 0.00 | 42 | 1000.0 |
| 20260504215203 | 81 | 214 | 20.0 | 29.0 | 0.00 | 0.00 | 0.00 | 41 | 1000.0 |
| 20260504214704 | 81 | 206 | 16.0 | 23.0 | 0.00 | 0.00 | 0.00 | 41 | 1000.0 |
| 20260504213703 | 81 | 219 | 17.0 | 28.0 | 0.00 | 0.00 | 0.00 | 42 | 1000.0 |
| 20260504213203 | 82 | 216 | 14.0 | 24.0 | 0.00 | 0.00 | 0.00 | 41 | 1000.0 |
| 20260504212703 | 81 | 221 | 14.0 | 23.0 | 0.00 | 0.00 | 0.00 | 42 | 1000.0 |
| 20260504212204 | 81 | 211 | 14.0 | 26.0 | 0.00 | 0.00 | 0.00 | 42 | 1000.0 |
| 20260504211704 | 82 | 225 | 14.0 | 22.0 | 0.00 | 0.00 | 0.00 | 40 | 1000.0 |
| 20260504211203 | 82 | 219 | 13.0 | 20.0 | 0.00 | 0.00 | 0.00 | 40 | 1000.0 |
| 20260504210203 | 81 | 216 | 18.0 | 32.0 | 0.00 | 0.00 | 0.00 | 39 | 1000.0 |
| 20260504205204 | 82 | 209 | 17.0 | 28.0 | 0.00 | 0.00 | 0.00 | 39 | 1000.0 |
| 20260504204704 | 82 | 220 | 17.0 | 29.0 | 0.00 | 0.00 | 0.00 | 40 | 1000.0 |
| 20260504204204 | 82 | 233 | 18.0 | 28.0 | 0.00 | 0.00 | 0.00 | 40 | 1000.0 |
| 20260504203203 | 82 | 211 | 13.0 | 22.0 | 0.00 | 0.00 | 0.00 | 41 | 1000.0 |
| 20260504202704 | 82 | 210 | 16.0 | 28.0 | 0.00 | 0.00 | 0.00 | 41 | 1000.0 |
| 20260504202203 | 82 | 210 | 16.0 | 26.0 | 0.00 | 0.00 | 0.00 | 42 | 1000.0 |
| 20260504201703 | 81 | 208 | 18.0 | 25.0 | 0.00 | 0.00 | 0.00 | 40 | 1000.0 |
| 20260504201204 | 82 | 207 | 14.0 | 26.0 | 0.00 | 0.00 | 0.00 | 42 | 1000.0 |
| 20260504200703 | 81 | 213 | 17.0 | 29.0 | 0.00 | 0.00 | 0.00 | 41 | 1000.0 |
| 20260504200203 | 81 | 217 | 15.0 | 23.0 | 0.00 | 0.00 | 0.00 | 41 | 1000.0 |
| 20260504195703 | 81 | 220 | 17.0 | 26.0 | 0.00 | 0.00 | 0.00 | 41 | 1000.0 |
| 20260504195203 | 82 | 230 | 14.0 | 23.0 | 0.00 | 0.00 | 0.00 | 41 | 1000.0 |
| 20260504194703 | 82 | 203 | 13.0 | 22.0 | 0.00 | 0.00 | 0.00 | 42 | 1000.0 |
| 20260504194204 | 81 | 209 | 12.0 | 21.0 | 0.00 | 0.00 | 0.00 | 43 | 1000.0 |
| 20260504193703 | 82 | 203 | 11.0 | 23.0 | 0.00 | 0.00 | 0.00 | 44 | 1000.0 |
| 20260504193204 | 80 | 228 | 12.0 | 22.0 | 0.00 | 0.00 | 0.00 | 47 | 1000.0 |
| 20260504192703 | 80 | 208 | 10.0 | 16.0 | 0.00 | 0.00 | 0.00 | 45 | 1000.0 |
| 20260504192203 | 80 | 230 | 10.0 | 16.0 | 0.00 | 0.00 | 0.00 | 46 | 1000.0 |
| 20260504191704 | 80 | 221 | 9.0 | 18.0 | 0.00 | 0.00 | 0.00 | 48 | 1000.0 |
| 20260504191203 | 79 | 220 | 10.0 | 18.0 | 0.00 | 0.00 | 0.00 | 49 | 1000.0 |
| 20260504190703 | 78 | 223 | 12.0 | 21.0 | 0.00 | 0.00 | 0.00 | 50 | 1000.0 |
| 20260504190203 | 77 | 217 | 12.0 | 17.0 | 0.00 | 0.00 | 0.00 | 49 | 1000.0 |
| 20260504185704 | 77 | 207 | 13.0 | 25.0 | 0.00 | 0.00 | 0.00 | 48 | 1000.0 |
| 20260504185204 | 77 | 218 | 16.0 | 24.0 | 0.00 | 0.00 | 0.00 | 48 | 1000.0 |
| 20260504184704 | 77 | 205 | 18.0 | 23.0 | 0.00 | 0.00 | 0.00 | 48 | 1000.0 |
| 20260504184203 | 77 | 200 | 12.0 | 23.0 | 0.00 | 0.00 | 0.00 | 49 | 1000.0 |
| 20260504183703 | 76 | 194 | 14.0 | 22.0 | 0.00 | 0.00 | 0.00 | 51 | 1000.0 |
| 20260504183203 | 76 | 205 | 14.0 | 25.0 | 0.00 | 0.00 | 0.00 | 52 | 1000.0 |
| 20260504182704 | 76 | 209 | 16.0 | 23.0 | 0.00 | 0.00 | 0.00 | 50 | 1000.0 |
| 20260504182203 | 76 | 212 | 16.0 | 25.0 | 0.00 | 0.00 | 0.00 | 50 | 1000.0 |
| 20260504181704 | 77 | 216 | 14.0 | 26.0 | 0.00 | 0.00 | 0.00 | 47 | 1000.0 |
| 20260504180703 | 78 | 226 | 14.0 | 25.0 | 0.00 | 0.00 | 0.00 | 45 | 1000.0 |
| 20260504180203 | 78 | 207 | 13.0 | 25.0 | 0.00 | 0.00 | 0.00 | 44 | 1000.0 |
| 20260504175704 | 78 | 209 | 17.0 | 24.0 | 0.00 | 0.00 | 0.00 | 44 | 1000.0 |
| 20260504174704 | 77 | 222 | 10.0 | 15.0 | 0.00 | 0.00 | 0.00 | 46 | 1000.0 |
| 20260504174204 | 77 | 220 | 11.0 | 17.0 | 0.00 | 0.00 | 0.00 | 45 | 1000.0 |
| 20260504173704 | 77 | 221 | 10.0 | 18.0 | 0.00 | 0.00 | 0.00 | 46 | 1000.0 |
| 20260504173204 | 77 | 236 | 12.0 | 23.0 | 0.00 | 0.00 | 0.00 | 46 | 1000.0 |
| 20260504172203 | 77 | 224 | 11.0 | 22.0 | 0.00 | 0.00 | 0.00 | 45 | 1000.0 |
| 20260504171703 | 77 | 219 | 10.0 | 16.0 | 0.00 | 0.00 | 0.00 | 45 | 1000.0 |
| 20260504170703 | 79 | 237 | 10.0 | 18.0 | 0.00 | 0.00 | 0.00 | 43 | 1000.0 |
| 20260504170204 | 79 | 230 | 12.0 | 23.0 | 0.00 | 0.00 | 0.00 | 44 | 1000.0 |
| 20260504160204 | 77 | 232 | 11.0 | 22.0 | 0.00 | 0.00 | 0.00 | 44 | 1000.0 |
| 20260504150704 | 74 | 217 | 13.0 | 25.0 | 0.00 | 0.00 | 0.00 | 47 | 1000.0 |
| 20260504150203 | 73 | 212 | 16.0 | 26.0 | 0.00 | 0.00 | 0.00 | 47 | 1000.0 |
| 20260504140703 | 70 | 219 | 14.0 | 21.0 | 0.00 | 0.00 | 0.00 | 51 | 1000.0 |
| 20260504140204 | 71 | 212 | 11.0 | 18.0 | 0.00 | 0.00 | 0.00 | 50 | 1000.0 |
| 20260504130204 | 67 | 213 | 13.0 | 24.0 | 0.00 | 0.00 | 0.00 | 54 | 1000.0 |
| 20260504120204 | 67 | 214 | 17.0 | 25.0 | 0.00 | 0.00 | 0.00 | 52 | 1000.0 |
| 20260504110703 | 67 | 209 | 14.0 | 21.0 | 0.00 | 0.00 | 0.00 | 51 | 1000.0 |
| 20260504110203 | 67 | 208 | 14.0 | 20.0 | 0.00 | 0.00 | 0.00 | 51 | 1000.0 |
| 20260504100204 | 68 | 224 | 7.0 | 14.0 | 0.00 | 0.00 | 0.00 | 52 | 1000.0 |
| 20260504081704 | 69 | 216 | 11.0 | 20.0 | 0.00 | 0.00 | 0.00 | 51 | 1000.0 |
| 20260504060204 | 70 | 216 | 10.0 | 17.0 | 0.00 | 0.00 | 0.00 | 48 | 1000.0 |
| 20260504050703 | 72 | 212 | 13.0 | 18.0 | 0.00 | 0.00 | 0.00 | 46 | 1000.0 |
| 20260504050203 | 72 | 208 | 14.0 | 20.0 | 0.00 | 0.00 | 0.00 | 45 | 1000.0 |